Powrót do katalogu

STARLINK-6213

AktywnyŁącznośćVLEO
NORAD 56891·PAYLOAD·🇺🇸 United States

Wystrzelony Jun 12, 2023 z Cape Canaveral Space Force Station

Loading…

Następne Przeloty (najbliższe 24 godziny)

TLE

ŚwieżeSource: CelesTrak SupGP

Epoka: Sep 14, 2026, 20:56 UTC

1 56891C 23083R   26257.87270833  .00003684  00000+0  13349-3 0  2575
2 56891  43.0005  96.5496 0001035 260.3518 194.5761 15.27565896    14

Śledź STARLINK-6213 w czasie rzeczywistym z AllMySat

Download on the App Store